Погода в Спиридоновой Буде

Россия / Брянская область     52°16′56″N   31°46′51″E
темп.,
°C
ветер,
м/с
пор.,
м/с
влажн.,
%
обл.,
%
осадки,
мм/ч
давл.,
гПа
погр.,
м
29 июля, чт
чт2900:00+21зюз33689 0.0 101124
03:00+20зюз33735 0.0 101131
06:00+19з227643 0.0 101011
09:00+25юз22613 0.0 1010351
12:00+29юз34435 0.0 10091627
15:00+31юз353654 0.0 10072583
18:00+28ю475239 0.0 1006401
21:00+19зсз81698100 9.8 1007690
30 июля, пт
пт3000:00+18з2492100 5.3 100787
03:00+18зсз38978 5.3 1008221
06:00+18зсз499819 0.0 1008294
09:00+21сз46833 0.0 1009525
12:00+25зсз46550 0.0 10101558
15:00+26з4548100 0.0 10092046
18:00+26зсз23553 0.0 1009946
21:00+21з226889 0.0 100819
31 июля, сб
сб3100:00+19зсз116863 0.0 100911
03:00+21юз225860 0.0 100927
06:00+18юз34715 0.0 100961
09:00+22зюз48615 0.0 1010397
12:00+27з594590 0.0 10101614
15:00+29з5841100 0.0 10092185
18:00+29з254898 0.0 10091106
21:00+23зюз116219 0.0 100911
1 августа, вс
вс100:00+21ю336882 0.0 101037
03:00+20ю4117347 0.0 1009208
06:00+20ю5147219 0.0 1008295
09:00+25ююз7136069 0.0 1009847
12:00+28юз7105185 0.0 10081491
15:00+29з565199 0.0 10081727
18:00+28з35545 0.0 10081504
21:00+22ссз11660 0.0 100811
2 августа, пн
пн200:00+21вюв227083 0.0 100911
03:00+19юв33785 0.0 100831
06:00+19юз2386100 0.1 100758
09:00+23ю477021 0.1 1006375
12:00+26юз6761100 0.1 1005993
15:00+30зюз58495 0.1 10041720
18:00+28зсз5755100 0.0 10031168
21:00+18юз5995100 5.3 1007231